Home > Weather > Sault Ste. Marie > Past weeks

Flag for Canada Past Weather in Sault Ste. Marie, Ontario, Canada — Yesterday and Last 2 Weeks

Now
77 °F

Passing clouds.


Feels Like: 78 °F
Forecast: 61 / 79 °F
Wind: 15 mph from Northwest

Location: Sault Ste Marie

Current Time: Jul 28, 2016 at 2:27:01 PM

Latest Report: Jul 28, 2016 at 2:00 PM


Visibility: 15 mi

Pressure: 30.00 "Hg

Humidity: 44%

Dew Point: 54 °F

Location of Sault Ste. MarieLocation

Past Weather in Sault Ste. Marie — Graph

°F

Sault Ste. Marie Temperature Yesterday

Maximum temperature yesterday: 79 °F (at 4:00 PM)
Minimum temperature yesterday: 61 °F (at 3:00 AM)
Average temperature yesterday: 68 °F

High & Low Weather Summary for the Past Weeks

 TemperatureHumidityPressure
High86 °F (Jul 13, 3:00 PM)100% (Jul 14, 5:00 AM)30.30 "Hg (Jul 14, 5:00 AM)
Low43 °F (Jul 16, 4:00 AM)36% (Jul 16, 6:00 PM)29.58 "Hg (Jul 14, 7:46 AM)
Average66 °F78%29.94 "Hg
* Reported Jul 13 1:00 PM — Jul 28 1:00 PM, Sault Ste. Marie, Weather by CustomWeather, © 2016

Note: Actual official high and low records may vary slightly from our data, if they occured in-between our weather recording intervals... More about our weather records

Advertising

Sault Ste. Marie Weather History for the Previous 24 Hours

Scroll right to see more
 ConditionsComfort  
Time TempWeatherWind HumidityBarometerVisibility
1:00 PM
Thu, Jul 28
75 °FScattered clouds.13 mph57%30.01 "Hg15 mi
12:00 PM75 °FPassing clouds.6 mph50%30.01 "Hg15 mi
11:00 AM73 °FPassing clouds.10 mph53%30.01 "Hg15 mi
10:00 AM72 °FPassing clouds.9 mph57%30.01 "Hg15 mi
9:00 AM68 °FPassing clouds.8 mph64%30.02 "Hg15 mi
8:00 AM63 °FBroken clouds.No wind83%30.01 "Hg15 mi
7:00 AM59 °FPartly cloudy.2 mph100%30.01 "Hg15 mi
6:00 AM61 °FPassing clouds.6 mph88%30.00 "Hg15 mi
5:00 AM61 °FPassing clouds.7 mph88%29.99 "Hg15 mi
4:00 AM63 °FLight rain. Overcast.8 mph88%29.98 "Hg15 mi
3:00 AM63 °FOvercast.12 mph83%29.98 "Hg15 mi
2:00 AM63 °FLight rain. Mostly cloudy.10 mph88%29.98 "Hg15 mi
1:00 AM63 °FPassing clouds.12 mph83%29.98 "Hg15 mi
12:00 AM63 °FPassing clouds.13 mph83%29.98 "Hg15 mi
11:00 PM
Wed, Jul 27
63 °FPassing clouds.12 mph83%29.98 "Hg15 mi
10:00 PM64 °FPartly sunny.12 mph73%29.97 "Hg15 mi
9:00 PM66 °FPartly sunny.9 mph73%29.97 "Hg15 mi
8:00 PM70 °FCloudy.8 mph69%29.97 "Hg15 mi
7:00 PM70 °FPartly sunny.6 mph64%29.96 "Hg15 mi
6:00 PM72 °FPartly sunny.8 mph65%29.96 "Hg15 mi
5:00 PM75 °FBroken clouds.10 mph61%29.96 "Hg15 mi
4:00 PM79 °FBroken clouds.13 mph48%29.96 "Hg15 mi
3:00 PM73 °FBroken clouds.12 mph69%29.98 "Hg15 mi
2:00 PM70 °FBroken clouds.10 mph83%29.99 "Hg15 mi
Weather by CustomWeather, © 2016

See weather overviewHow to use our weather pages